Content
SEND FEEDBACK

Daily
Averages
Monthly
Summary
Algeria

BATNA, ALGERIA


Home > Africa > Algeria
Elevation: 3451 feet     Latitude: 35 33N     Longitude: 006 11E

WEATHER
 
SELECT A DAY
Number of Records: 120,436;   Date Range: 9/25/01 - 9/28/14
 
SHARE

PRINT THIS DATA

[ ← Previous Day ]
WEATHER ALMANAC - JANUARY 23, 2013
[ Next Day → ]
[ °C ]   °F
Weather ElementAverageHighLow
Temperature42.1 °F46.4 °F (10:00 am)33.8 °F (10:00 pm)
Dewpoint31.8 °F35.6 °F (12:00 pm)30 °F (1:00 am)
Humidity65.1 %87 % (3:00 pm)43 % (1:00 pm)
Barometer29.85 in29.92 in (1:00 am)29.80 in (1:00 pm)
Wind Speed19.7 mph33.4 mph (4:00 pm)
Weather ElementAverage
Visibility5.8 mi
Wind DirectionWSW (257.3 °)

Weather ElementTotal
Precipitation---
Heating Degree Days24.9 (Base 65)
Averaged from 30 records on January 23, 2013
WEATHER CONDITIONS BREAKOUT
WIND DIRECTION BREAKOUT
WEATHER BY HOUR - JANUARY 23, 2013
[ °C ]   °F
Local TimeTemperatureDewpointHumidityBarometerVisibilityWind DirectionWind SpeedGust SpeedPrecipitationEventsConditions
1:00 AM44.0 °F30.0 °F47 %6.0 miNNW (330°)11.5 mphScattered Clouds
1:00 AM44.6 °F30.2 °F57 %29.92 in6.2 miNNW (330°)11.5 mphPartly Cloudy
2:00 AM42.8 °F30.2 °F61 %29.92 in6.2 miSW (230°)16.1 mphScattered Clouds
3:00 AM42.8 °F32.0 °F66 %29.92 in6.2 miSW (230°)18.4 mphScattered Clouds
4:00 AM45.0 °F32.0 °F49 %6.0 miSW (230°)20.7 mphPartly Cloudy
4:00 AM44.6 °F32.0 °F61 %29.86 in6.2 miSW (230°)20.7 mphScattered Clouds
5:00 AM42.8 °F32.0 °F66 %29.86 in6.2 miSW (230°)18.4 mphScattered Clouds
6:00 AM42.8 °F32.0 °F66 %29.83 in6.2 miSW (230°)18.4 mphScattered Clouds
7:00 AM44.0 °F32.0 °F52 %6.0 miSW (230°)13.8 mphMostly Cloudy
7:00 AM44.6 °F32.0 °F61 %29.83 in6.2 miSW (230°)13.8 mphScattered Clouds
8:00 AM44.6 °F32.0 °F61 %29.83 in6.2 miSW (230°)16.1 mphScattered Clouds
9:00 AM44.6 °F33.8 °F66 %29.83 in6.2 miSW (230°)16.1 mphMostly Cloudy
10:00 AM46.0 °F31.0 °F45 %4.0 miSSW (210°)16.1 mphPartly Cloudy
10:00 AM46.4 °F32.0 °F57 %29.83 in6.2 miSSW (210°)16.1 mphMostly Cloudy
11:00 AM44.6 °F33.8 °F66 %29.83 in6.2 miWSW (240°)24.2 mphScattered Clouds
12:00 PM46.4 °F35.6 °F66 %29.83 in6.2 miSSW (200°)21.9 mphScattered Clouds
1:00 PM46.0 °F31.0 °F43 %5.0 miWSW (250°)31.1 mphRainLight Rain
1:00 PM46.4 °F30.2 °F53 %29.80 in5.0 miWSW (250°)31.1 mphRainLight Rain
2:00 PM44.6 °F35.6 °F71 %29.80 in5.0 miWest (260°)28.8 mphScattered Clouds
3:00 PM39.2 °F35.6 °F87 %29.80 in6.2 miWest (270°)18.4 mphScattered Clouds
4:00 PM42.0 °F32.0 °F58 %9.0 miWSW (250°)33.4 mphPartly Cloudy
4:00 PM41.0 °F32.0 °F70 %29.80 in6.2 miWSW (250°)33.4 mphScattered Clouds
5:00 PM41.0 °F30.2 °F65 %29.86 in6.2 miWNW (290°)26.5 mphScattered Clouds
6:00 PM39.2 °F32.0 °F75 %29.86 in6.2 miNW (310°)16.1 mphMostly Cloudy
7:00 PM37.0 °F31.0 °F71 %4.0 miWNW (300°)21.9 mphPartly Cloudy
7:00 PM37.4 °F30.2 °F75 %29.89 in3.7 miWNW (300°)21.9 mphMostly Cloudy
8:00 PM35.6 °F30.2 °F81 %29.89 in5.0 miWest (280°)13.8 mphSnowLight Snow
10:00 PM34.0 °F31.0 °F84 %5.0 miWNW (300°)13.8 mphPartly Cloudy
10:00 PM33.8 °F30.2 °F87 %29.89 in5.0 miWNW (300°)13.8 mphMostly Cloudy
11:00 PM33.8 °F30.2 °F87 %29.89 in5.0 miWNW (290°)13.8 mphMostly Cloudy
Hourly data recorded from DABT, located miles away from Batna, Algeria







STORIES FROM OUR PARTNERS